Location: Les Chemineaux
(47.3024°N, 1.5104°E)
Time: 22:16:37
(UTC+00:00)

Cosmos 1605 Rocket - Pass Details

Date: 19 May 2025
Orbit: 944 x 1005 km, 82.9° (Epoch: 11 June)

Event Time Altitude Azimuth Distance (km) Brightness Sun altitude
Rises 23:24:21 0° 349° (N) 3,727 8.5 -22.5°
Reaches altitude 10° 23:26:54 10° 349° (NNW) 2,766 7.5 -22.5°
Maximum altitude 23:33:14 78° 264° (W) 1,009 4.0 -22.6°
Enters shadow 23:35:17 45° 188° (S) 1,307 4.2 -22.6°
